• Join FlightAware (Why Join?)
  • Login
  • US Flag GB Flag 
11:28 EDT


 

Airport Tracker/Info


-or-


 

Live Flight TrackerFlight Track Log ✈ SWA561 ✈ 12-Apr-2013 ✈ KELP - KLAX

Flight Track Log - Related Links

Times and Time Zones

All times are in EDT time to prevent confusion due to time zone crossing. See the SWA561 flight status page for this flight to view local times or setup timezone preferences in your user account.

Time Position Orientation Groundspeed Altitude Reporting Facility
EDT Latitude Longitude Course Direction KTS MPH feet Rate Location/Type
20:35 31.8022 -106.3992 242° Southwest 177 204 4,900  Level Albuquerque Center
20:35 31.7925 -106.4203 242° Southwest 175 201 5,700 2,100 Climbing Albuquerque Center
20:36 31.7769 -106.4525 240° Southwest 189 217 7,100 2,400 Climbing Albuquerque Center
20:36 31.7664 -106.4767 243° Southwest 218 251 7,900 2,400 Climbing Albuquerque Center
20:37 31.7783 -106.5317 284° West 275 316 9,600 2,640 Climbing Albuquerque Center
20:38 31.8297 -106.6242 303° West 323 372 12,700 3,300 Climbing Albuquerque Center
20:39 31.8531 -106.7328 284° West 340 391 16,400 3,600 Climbing Albuquerque Center
20:40 31.8722 -106.8428 282° West 344 396 20,100 3,000 Climbing Albuquerque Center
20:41 31.8917 -106.9553 282° West 350 403 22,600 2,160 Climbing Albuquerque Center
20:42 31.9128 -107.0778 282° West 375 432 24,600 1,920 Climbing Albuquerque Center
20:43 31.9447 -107.2069 286° West 402 463 26,600 1,980 Climbing Albuquerque Center
20:44 31.9911 -107.3644 289° West 418 481 28,700 2,040 Climbing Albuquerque Center
20:45 32.0308 -107.4992 289° West 430 495 30,800 2,040 Climbing Albuquerque Center
20:46 32.0689 -107.6322 289° West 429 494 33,000 2,040 Climbing Albuquerque Center
20:47 32.1072 -107.7628 289° West 422 486 35,100 1,740 Climbing Albuquerque Center
20:48 32.1436 -107.8897 289° West 413 475 36,600 1,080 Climbing Albuquerque Center
20:49 32.1800 -108.0194 288° West 414 476 37,400 600 Climbing Albuquerque Center
20:50 32.2192 -108.1522 289° West 424 488 37,900 240 Climbing Albuquerque Center
20:51 32.2567 -108.2819 289° West 420 483 38,000  Climbing Albuquerque Center
20:53 32.2925 -108.4114 288° West 416 479 38,000  Level Albuquerque Center
20:54 32.3325 -108.5519 289° West 416 479 38,000  Level Albuquerque Center
20:55 32.3681 -108.6811 288° West 416 479 38,000  Level Albuquerque Center
20:56 32.4047 -108.8083 289° West 413 475 38,000  Level Albuquerque Center
20:57 32.4464 -108.9611 288° West 409 471 38,000  Level Albuquerque Center
20:58 32.4822 -109.0883 288° West 408 470 38,000  Level Albuquerque Center
20:59 32.5178 -109.2161 288° West 408 470 38,000  Level Albuquerque Center
21:00 32.5519 -109.3439 288° West 408 470 38,000  Level Albuquerque Center
21:01 32.5875 -109.4725 288° West 411 473 38,000  Level Albuquerque Center
21:02 32.6228 -109.6006 288° West 411 473 38,000  Level Albuquerque Center
21:03 32.6581 -109.7300 288° West 413 475 38,000  Level Albuquerque Center
21:04 32.6997 -109.8861 288° West 411 473 38,000  Level Albuquerque Center
21:05 32.7342 -110.0150 288° West 409 471 38,000  Level Albuquerque Center
21:06 32.7733 -110.1472 289° West 421 484 38,000  Level Albuquerque Center
21:07 32.8075 -110.2767 287° West 417 480 38,000  Level Albuquerque Center
21:08 32.8425 -110.4061 288° West 415 478 38,000  Level Albuquerque Center
21:09 32.8764 -110.5361 287° West 415 478 38,000  Level Albuquerque Center
21:10 32.9122 -110.6739 287° West 416 479 38,000  Level Albuquerque Center
21:11 32.9472 -110.8056 288° West 417 480 38,000  Level Albuquerque Center
21:12 32.9897 -110.9650 288° West 422 486 38,000  Level Albuquerque Center
21:13 33.0239 -111.0969 287° West 418 481 38,000  Level Albuquerque Center
21:14 33.0575 -111.2300 287° West 419 482 38,000  Level Albuquerque Center
21:15 33.0911 -111.3639 287° West 420 483 38,000  Level Albuquerque Center
21:16 33.1250 -111.4969 287° West 418 481 38,000  Level Albuquerque Center
21:17 33.1594 -111.6317 287° West 422 486 38,000  Level Albuquerque Center
21:18 33.1933 -111.7653 287° West 422 486 38,000  Level Albuquerque Center
21:19 33.2275 -111.8994 287° West 421 484 38,000  Level Albuquerque Center
21:20 33.2606 -112.0353 286° West 423 487 38,000  Level Albuquerque Center
21:21 33.2994 -112.1958 286° West 420 483 38,000  Level Albuquerque Center
21:22 33.3325 -112.3286 287° West 416 479 38,000  Level Albuquerque Center
21:23 33.3650 -112.4619 286° West 418 481 38,000  Level Albuquerque Center
21:24 33.3978 -112.5953 286° West 416 479 38,000  Level Albuquerque Center
21:25 33.4286 -112.7208 286° West 415 478 38,000  Level Albuquerque Center
21:26 33.4628 -112.8525 287° West 416 479 38,000  Level Albuquerque Center
21:27 33.5183 -113.0031 294° West 415 478 38,000  Level Albuquerque Center
21:28 33.5633 -113.1317 293° West 418 481 38,000  Level Albuquerque Center
21:29 33.6086 -113.2597 293° West 419 482 38,000  Level Albuquerque Center
21:30 33.6575 -113.3994 293° West 421 484 38,000  Level Albuquerque Center
21:32 33.7031 -113.5275 293° West 420 483 38,000  Level Albuquerque Center
21:33 33.7483 -113.6567 293° West 419 482 38,000  Level Albuquerque Center
21:34 33.7931 -113.7872 292° West 422 486 38,000  Level Albuquerque Center
21:35 33.8392 -113.9153 293° West 419 482 38,000  Level Albuquerque Center
21:36 33.8828 -114.0414 293° West 413 475 38,000  Level Albuquerque Center
21:37 33.9256 -114.1692 292° West 411 473 38,000  Level Albuquerque Center
21:38 33.9731 -114.3067 293° West 407 468 38,000  Level Albuquerque Center
21:39 34.0167 -114.4272 294° West 397 457 38,000  Level Albuquerque Center
21:39 34.0447 -114.5122 292° West 392 451 38,000  Level Los Angeles Center
21:40 34.0858 -114.6319 293° West 389 448 38,000  Level Los Angeles Center
21:41 34.1025 -114.7631 279° West 403 464 38,000  Level Los Angeles Center
21:42 34.1050 -114.9014 271° West 410 472 38,000  Level Los Angeles Center
21:43 34.1067 -115.0389 271° West 411 473 38,000  Level Los Angeles Center
21:44 34.1086 -115.1764 271° West 412 474 38,000  Level Los Angeles Center
21:45 34.1092 -115.3436 270° West 417 480 38,000  Level Los Angeles Center
21:46 34.1111 -115.4836 271° West 418 481 38,000  Level Los Angeles Center
21:48 34.1117 -115.6231 270° West 419 482 38,000  Level Los Angeles Center
21:49 34.1111 -115.7625 270° West 417 480 38,000 -120 Level Los Angeles Center
21:50 34.0925 -115.9028 261° West 426 490 37,800 -1,200 Descending Los Angeles Center
21:51 34.0728 -116.0406 260° West 422 486 35,600 -2,700 Descending Los Angeles Center
21:52 34.0464 -116.2117 260° West 437 503 32,300 -3,000 Descending Los Angeles Center
21:53 34.0247 -116.3564 260° West 442 509 29,400 -2,520 Descending Los Angeles Center
21:54 34.0033 -116.5014 260° West 441 507 27,100 -2,040 Descending Los Angeles Center
21:55 33.9947 -116.6111 265° West 419 482 25,300 -2,160 Descending Los Angeles Center
21:56 33.9819 -116.7719 265° West 405 466 22,700 -2,520 Descending Los Angeles Center
21:57 33.9697 -116.9253 265° West 387 445 20,100 -2,400 Descending Los Angeles Center
21:58 33.9667 -117.0167 268° West 363 418 18,500 -1,800 Descending Southern California TRACON
21:59 33.9500 -117.1333 260° West 359 413 17,000 -1,200 Descending Southern California TRACON
22:00 33.9500 -117.2667 270° West 356 410 16,200 -1,440 Descending Southern California TRACON
22:02 33.9667 -117.4667 276° West 307 353 12,800 -1,680 Descending Southern California TRACON
22:03 34.0000 -117.5500 296° West 297 342 11,300 -1,440 Descending Southern California TRACON
22:04 34.0167 -117.6500 281° West 319 367 10,000 -1,140 Descending Southern California TRACON
22:04 34.0000 -117.7500 259° West 279 321 9,200 -1,140 Descending Southern California TRACON
22:05 34.0000 -117.8333 270° West 275 316 7,900 -1,260 Descending Southern California TRACON
22:07 33.9833 -117.9333 259° West 271 312 6,600 -1,080 Descending Southern California TRACON
22:08 33.9667 -118.0167 256° West 246 283 5,700 -900 Descending Southern California TRACON
22:08 33.9667 -118.0833 270° West 230 265 4,900 -960 Descending Southern California TRACON
22:09 33.9631 -118.1386 266° West 232 267 4,200 -960 Descending Los Angeles Center
22:10 33.9561 -118.2019 262° West 210 242 3,300 -1,020 Descending Los Angeles Center
22:11 33.9497 -118.2619 263° West 193 222 2,100 -1,080 Descending Los Angeles Center
22:12 33.9444 -118.3181 264° West 181 208 1,200 -840 Descending Los Angeles Center
22:13 33.9403 -118.3667 264° West 140 161 400 -540 Descending Los Angeles Center
22:14 33.9367 -118.4042 263° West 134 154 100 -300 Descending Los Angeles Center
22:16 33.9333 -118.4000 270° West  Level FlightAware Approximate